Location: Artiguedieu
(43.5000°N, 0.5454°E)
Time: 11:28:18
(UTC+00:00)

deb Chang Zheng 4 - Pass Details

Date: 06 December 2020
Orbit: 601 x 623 km, 98.6° (Epoch: 28 January)

Event Time Altitude Azimuth Distance (km) Brightness Sun altitude
Rises 05:35:21 0° 5° (N) 2,917 6.9 -17.7°
Reaches altitude 10° 05:37:40 10° 358° (N) 2,007 6.0 -17.3°
Maximum altitude 05:41:41 37° 291° (WNW) 977 4.0 -16.6°
Drops below altitude 10° 05:45:40 10° 224° (SW) 1,994 5.9 -15.9°
Sets 05:47:58 0° 216° (SW) 2,895 6.8 -15.5°
